This is the latest recevied weather packets stored in our database for station/object VK4TW-13. If no packets are shown the sender has not sent any weather packets the latest 1 day(s).
| Time | Temp. | Humidity | Pressure | Rain* | Wind** | Luminosity | Snow |
|---|---|---|---|---|---|---|---|
| 1778110919 | 25° C | 100% | 1016.1 hPa | 0 mm | - | - | - |
| 1778110317 | 24.44° C | 100% | 1016.1 hPa | 0 mm | - | - | - |
| 1778109719 | 24.44° C | 100% | 1016.2 hPa | 0 mm | - | - | - |
| 1778109115 | 24.44° C | 100% | 1016.2 hPa | 0 mm | - | - | - |
| 1778108514 | 24.44° C | 100% | 1016.4 hPa | 0 mm | - | - | - |
| 1778107916 | 23.89° C | 100% | 1016.2 hPa | 0 mm | - | - | - |
| 1778103708 | 21.67° C | 100% | 1016 hPa | 0 mm | - | - | - |
| 1778102510 | 20.56° C | 100% | 1015.7 hPa | 0 mm | - | - | - |
| 1778101303 | 20° C | 100% | 1015.5 hPa | 0 mm | - | - | - |
| 1778099499 | 20° C | 100% | 1015.2 hPa | 0 mm | - | - | - |
| 1778098298 | 20° C | 100% | 1015 hPa | 0 mm | - | - | - |
| 1778097696 | 20° C | 100% | 1014.8 hPa | 0 mm | - | - | - |
| 1778096494 | 20° C | 100% | 1014.6 hPa | 0 mm | - | - | - |
| 1778095293 | 20° C | 100% | 1014.5 hPa | 0 mm | - | - | - |
| 1778094694 | 20° C | 100% | 1014.3 hPa | 0 mm | - | - | - |
| 1778094093 | 20° C | 100% | 1014.2 hPa | 0 mm | - | - | - |
| 1778093492 | 20° C | 100% | 1014.2 hPa | 0 mm | - | - | - |
| 1778091691 | 20.56° C | 100% | 1014.2 hPa | 0 mm | - | - | - |
| 1778088685 | 20.56° C | 100% | 1014.2 hPa | 0 mm | - | - | - |
| 1778086279 | 21.11° C | 100% | 1014.4 hPa | 5.08 mm | - | - | - |
| 1778083876 | 21.11° C | 100% | 1014.7 hPa | 5.08 mm | - | - | - |
| 1778083274 | 21.11° C | 100% | 1015.1 hPa | 5.08 mm | - | - | - |
| 1778081474 | 21.67° C | 100% | 1015 hPa | 5.08 mm | - | - | - |
| 1778076064 | 22.22° C | 100% | 1015.1 hPa | 5.08 mm | - | - | - |
| 1778070055 | 21.67° C | 100% | 1015.7 hPa | 5.08 mm | - | - | - |
* Rain since midnight (hover to see other rain measurements)
** Current wind speed in m/s (hover to see current wind gust speed)